Tracking 18816 objects as of 17-October-2017
HD Live streaming from Space Station
objects crossing your sky now

MINOTAUR R/B

Track MINOTAUR R/B now!
10-day predictions


NORAD ID: 26066
Int'l Code: 2000-004F
Perigee: 750.3 km
Apogee: 796.8 km
Inclination: 100.2 °
Period: 100.2 minutes
Semi major axis: 7144 km
RCS: 1.5369 m2 (large)
Launch date: January 27, 2000
Source: United States (US)
Launch site: AIR FORCE WESTERN TEST RANGE (AFWTR)

Note: This is a ROCKET BODY
aabbcc
Your satellite tracking list
Your tracking list is empty





NASA's NSSDC Master Catalog

Two Line Element Set (TLE):
1 26066U 00004F   17289.74574517 -.00000001  00000-0  19582-4 0  9992
2 26066 100.2218 328.9804 0032557 302.7267 194.2302 14.37603584929405
Source of the keplerian elements: AFSPC